EST,Max TemperatureF,Mean TemperatureF,Min TemperatureF,Max Dew PointF,MeanDew PointF,Min DewpointF,Max Humidity, Mean Humidity, Min Humidity, Max Sea Level PressureIn, Mean Sea Level PressureIn, Min Sea Level PressureIn, Max VisibilityMiles, Mean VisibilityMiles, Min VisibilityMiles, Max Wind SpeedMPH, Mean Wind SpeedMPH, Max Gust SpeedMPH,PrecipitationIn, CloudCover, Events, WindDirDegrees
2012-11-1,48,42,37,36,31,21,90,70,40,29.89,29.82,29.77,10,10,7,25,17,37,0.00,7,Rain,268
2012-11-2,52,46,40,33,26,22,56,47,34,30.02,29.90,29.83,10,10,10,25,15,39,0.00,3,,268
2012-11-3,56,45,35,42,31,27,93,59,38,30.13,30.07,30.02,10,10,3,14,8,21,0.19,3,Rain,253
2012-11-4,55,48,40,46,40,33,95,80,56,30.07,30.04,30.00,10,10,5,12,5,,0.13,8,Rain,290
2012-11-5,51,42,32,33,29,22,96,69,34,30.10,30.07,30.03,10,10,7,13,5,18,0.00,0,,252
2012-11-6,40,34,29,31,29,27,94,79,66,30.09,30.02,29.94,10,10,5,12,6,,0.00,1,,69
2012-11-7,52,40,29,40,33,28,96,79,53,29.99,29.91,29.84,10,8,2,14,4,18,0.00,5,,260
2012-11-8,51,43,35,36,30,20,96,65,32,30.18,30.11,30.00,10,8,2,20,12,26,0.00,1,,264
2012-11-9,59,46,33,32,31,28,86,61,35,30.30,30.25,30.18,10,10,10,18,8,21,0.00,0,,243
2012-11-10,70,51,32,40,32,28,86,54,25,30.39,30.34,30.28,10,10,10,13,4,18,0.00,0,,247
2012-11-11,72,56,39,50,37,28,76,52,21,30.46,30.40,30.37,10,10,10,14,4,23,0.00,2,,126
2012-11-12,66,55,43,57,51,40,94,72,56,30.38,30.29,30.19,10,10,5,16,6,31,0.20,8,Rain,212
2012-11-13,46,38,28,40,28,22,90,69,38,30.44,30.37,30.31,10,10,7,14,7,18,0.03,2,Rain,290
2012-11-14,46,36,26,31,28,24,92,75,54,30.46,30.39,30.33,10,10,10,13,4,18,0.00,0,,79
2012-11-15,55,42,29,32,30,28,94,75,40,30.33,30.29,30.22,10,10,7,10,4,,0.00,0,,108
2012-11-16,57,42,26,34,25,14,94,64,19,30.42,30.32,30.28,10,10,7,9,1,,0.00,0,,60
2012-11-17,55,42,30,32,25,18,85,57,23,30.51,30.47,30.42,10,10,10,14,4,17,0.00,0,,84
2012-11-18,52,42,31,38,32,25,92,71,57,30.53,30.47,30.42,10,10,10,12,6,16,0.00,3,,85
2012-11-19,56,46,35,45,40,32,96,86,65,30.43,30.33,30.23,10,8,0,8,4,,0.00,4,Fog,95
2012-11-20,59,47,35,44,37,28,97,73,30,30.22,30.15,30.09,10,9,0,14,3,21,0.00,2,Fog,253
2012-11-21,62,47,32,38,31,24,94,62,24,30.24,30.19,30.14,10,10,10,9,2,16,0.00,0,,334
2012-11-22,64,47,30,33,29,26,88,62,24,30.28,30.23,30.18,10,10,10,6,0,,0.00,0,,135
2012-11-23,56,44,32,44,35,27,90,69,48,30.17,30.06,29.96,10,10,10,28,10,39,0.00,3,,263
2012-11-24,39,32,25,28,21,18,75,62,50,30.10,30.04,29.97,10,10,10,24,16,32,0.00,6,,269
2012-11-25,46,34,22,24,17,13,87,55,26,30.11,30.05,29.98,10,10,10,20,11,26,0.00,0,,249
2012-11-26,54,44,34,36,22,14,77,44,28,30.21,30.15,30.07,10,10,10,16,9,20,0.00,4,Rain,246
2012-11-27,43,40,38,43,38,32,96,87,73,30.24,30.18,30.13,10,9,2,12,3,16,0.08,8,Rain,283
2012-11-28,45,38,30,32,25,18,81,63,34,30.38,30.31,30.22,10,10,10,20,9,24,0.00,3,,272
2012-11-29,53,38,22,30,21,11,91,62,19,30.42,30.37,30.32,10,10,10,14,2,17,0.00,0,,239
2012-11-30,58,42,27,33,29,22,91,65,32,30.37,30.33,30.27,10,10,10,14,3,16,0.00,0,,248